Tracking 17267 objects as of 31-August-2015
HD Live streaming from Space Station

GSAT 3 (EDUSAT)

Track GSAT 3 (EDUSAT) now!
GSAT 3 (EDUSAT) is classified as:


NORAD ID: 28417
Int'l Code: 2004-036A
Perigee: 36,058.2 km
Apogee: 36,099.2 km
Inclination: 4.0 °
Period: 1,450.7 minutes
Semi major axis: 42449 km
RCS: 15.8866 m2 (large)
Launch date: September 20, 2004
Source: India (IND)

Interactive education for remote areas of India; 6 C-band and 6 Ku-band transponders; first satellite dedicated to education.
Your satellite tracking list
Your tracking list is empty





NASA's NSSDC Master Catalog

Two Line Element Set (TLE):
1 28417U 04036A   15241.77429218 +.00000079 +00000-0 +00000-0 0  9994
2 28417 003.9574 065.9119 0004825 095.0626 153.6316 00.99263918039958

Source of the keplerian elements: AFSPC

N2YO: 329